Change the Weather History Date:

Friday, January 20, 2012

  Actual Average (PASK) Record (PASK)
Temperature  
Mean Temperature 8 °F -  
Max Temperature 3 °F 1 °F 37 °F (2008)
Min Temperature 0 °F -8 °F -45 °F (1999)
Degree Days  
Heating Degree Days 56    
Moisture  
Dew Point 0 °F    
Average Humidity 74    
Maximum Humidity 87    
Minimum Humidity 56    
Precipitation  
Precipitation 0.00 in - - ()
Sea Level Pressure  
Sea Level Pressure 30.30 in    
Wind  
Wind Speed 8 mph (North)    
Max Wind Speed 15 mph    
Max Gust Speed 23 mph    
Visibility 10 miles    
Events      
Averages and records for this station are not official NWS values.
T = Trace of Precipitation, MM = Missing Value Source: NWS Daily Summary

Daily Weather History Graph

Daily Weather History Graph

Search for Another Location

Airport or City:

Trip Planner

Search our weather history database for the weather conditions in past years. The results will help you decide how hot, cold, wet, or windy it might be!

Date:

Astronomy

Jan. 20, 2012 Rise Set
Actual Time 11:33 AM AKST 4:12 PM AKST
Civil Twilight 10:13 AM AKST 5:32 PM AKST
Nautical Twilight 9:01 AM AKST 6:44 PM AKST
Astronomical Twilight 7:57 AM AKST 7:48 PM AKST
Moon 10:31 AM AKST (1/20) 12:48 PM AKST (1/20)
Length of Visible Light 7h 18m
Length of Day
4h 38m
Waning Crescent, 7% of the Moon is Illuminated
Jan 20
Waning Crescent
Jan 22
New
Jan 30
First Quarter
Feb 7
Full
Feb 14
Last Quarter

Hourly Weather History & Observations

Time (AKST) Temp. Windchill Dew Point Humidity Pressure Visibility Wind Dir Wind Speed Gust Speed Precip Events Conditions
12:01 AM 17.1 °F 2.5 °F 3.9 °F 56% 30.46 in 10.0 mi NNE 15.0 mph 23.0 mph N/A   Clear
1:01 AM 14.0 °F 0.5 °F 3.0 °F 62% 30.47 in 10.0 mi North 11.5 mph - N/A   Clear
2:01 AM 10.9 °F -1.8 °F 3.0 °F 70% 30.48 in 10.0 mi North 9.2 mph - N/A   Clear
3:01 AM 5.0 °F -2.1 °F -0.9 °F 76% 30.48 in 10.0 mi NNE 3.5 mph - N/A   Clear
4:01 AM 5.0 °F -6.9 °F -0.0 °F 80% 30.46 in 10.0 mi NE 6.9 mph - N/A   Clear
5:01 AM 7.0 °F -3.3 °F -0.0 °F 73% 30.44 in 10.0 mi ENE 5.8 mph - N/A   Clear
6:01 AM 3.9 °F - -2.0 °F 76% 30.43 in 10.0 mi Calm Calm - N/A   Clear
7:01 AM 3.9 °F -3.4 °F -0.0 °F 84% 30.42 in 10.0 mi ESE 3.5 mph - N/A   Clear
8:01 AM 3.9 °F -5.3 °F -0.9 °F 80% 30.40 in 10.0 mi WSW 4.6 mph - N/A   Clear
9:01 AM 1.9 °F -7.6 °F -2.9 °F 80% 30.38 in 10.0 mi NW 4.6 mph - N/A   Clear
10:01 AM 1.0 °F -8.7 °F -4.0 °F 79% 30.35 in 10.0 mi WNW 4.6 mph - N/A   Clear
11:01 AM -0.9 °F -12.7 °F -5.1 °F 83% 30.33 in 10.0 mi North 5.8 mph - N/A   Clear
12:01 PM -0.9 °F -8.9 °F -4.0 °F 87% 30.31 in 10.0 mi NW 3.5 mph - N/A   Clear
1:01 PM 1.9 °F -7.6 °F -2.9 °F 80% 30.28 in 10.0 mi NW 4.6 mph - N/A   Clear
2:01 PM 1.0 °F - -4.0 °F 79% 30.26 in 10.0 mi Calm Calm - N/A   Clear
3:01 PM 1.0 °F - -5.1 °F 75% 30.24 in 10.0 mi Calm Calm - N/A   Clear
4:01 PM 3.9 °F -9.4 °F -0.0 °F 84% 30.21 in 10.0 mi North 8.1 mph - N/A   Clear
5:01 PM 10.9 °F -4.1 °F 3.9 °F 73% 30.19 in 10.0 mi North 12.7 mph - N/A   Clear
6:01 PM 14.0 °F 0.5 °F 3.9 °F 64% 30.18 in 10.0 mi NNW 11.5 mph 21.9 mph N/A   Clear
7:01 PM 12.9 °F -0.2 °F 3.0 °F 65% 30.17 in 10.0 mi NNW 10.4 mph - N/A   Clear
8:01 PM 12.9 °F 0.7 °F 3.0 °F 65% 30.14 in 10.0 mi North 9.2 mph - N/A   Clear
9:01 PM 12.9 °F -1.6 °F 3.0 °F 65% 30.11 in 10.0 mi NNW 12.7 mph - N/A   Clear
10:01 PM 10.0 °F -0.9 °F 1.0 °F 67% 30.08 in 10.0 mi NNW 6.9 mph - N/A   Clear
11:01 PM 7.0 °F - -0.0 °F 73% 30.04 in 10.0 mi Calm Calm - N/A   Clear